{"data":{"norad_id":67446,"epoch":"2026-09-19T05:06:05.838912Z","epoch_age_seconds":186515,"freshness":"STALE","line1":"1 67446U 26008B   26262.21256758  .00009733  00000+0  36269-3 0  9997","line2":"2 67446  43.0009 192.7834 0001513 270.8426  89.2252 15.27584055 39167","mean_motion":15.27584055,"eccentricity":0.0001513,"inclination_deg":43.0009,"raan_deg":192.7834,"arg_perigee_deg":270.8426,"mean_anomaly_deg":89.2252,"bstar":0.00036269,"rev_number":3916,"period_min":94.266498480832,"perigee_km":481.9988583185,"apogee_km":484.07504955696,"semimajor_km":6861.1739539377,"source":"CELESTRAK","updated_at":"2026-09-20T09:00:43.526357Z"}}